Regional Weather Roundup
Issued by NWS Northern Indiana

Home | Current Version | Previous Version | Text Only | Print | Product List | Glossary Off
Versions: 1 2 3 4 5 6 7 8 9 10 11 12 13 14 15 16 17 18 19 20 21 22 23 24 25 26 27 28 29 30 31 32 33 34 35 36 37 38 39 40 41 42 43 44 45 46 47 48 49 50

726
ASUS43 KIWX 141210
RWRIWX

KIWX WEATHER ROUNDUP
NATIONAL WEATHER SERVICE NORTHERN INDIANA
700 AM EST SUN FEB 14 2016

NOTE: "FAIR" INDICATES FEW OR NO CLOUDS BELOW 12,000 FEET WITH NO
SIGNIFICANT WEATHER AND/OR OBSTRUCTIONS TO VISIBILITY.

* THESE STATIONS ARE NOT UNDER NWS QUALITY CONTROL. THEY ALSO MAY NOT
  REPORT WEATHER SUCH AS PRECIPITATION OR FOG.

INZ001>027-141300-
NORTHERN INDIANA

CITY           SKY/WX    TMP DP  RH WIND       PRES   REMARKS
GARY*          MOCLDY    16   1  53 SE6       30.41F WCI   7
VALPARAISO     PTCLDY    11   3  70 SE8       30.40F WCI  -1
6HR MIN TEMP:   5; 6HR MAX TEMP:  11;

MICHIGAN CITY* PTCLDY     9   1  72 CALM      30.43S
LAPORTE*       CLOUDY     3   0  85 SE3       30.41F
6HR MIN TEMP:  -1; 6HR MAX TEMP:   6;

KNOX*          PTCLDY     7   1  78 SE6       30.42F WCI  -3
SOUTH BEND     CLOUDY     2  -2  83 SE3       30.43S
6HR MIN TEMP:  -1; 6HR MAX TEMP:   7;

GOSHEN         CLOUDY     3  -1  83 SE5       30.42F WCI  -6
6HR MIN TEMP:   0; 6HR MAX TEMP:  10;

MONTICELLO*    CLOUDY    13   0  56 SE6       30.41F WCI   4
6HR MIN TEMP:  11; 6HR MAX TEMP:  13;

LOGANSPORT*    CLOUDY    12   1  62 SE9       30.43F WCI   0
ROCHESTER*     CLOUDY     3  -4  72 E5        30.43F WCI  -6
WARSAW*        CLOUDY     3   0  85 CALM      30.43S
ANGOLA*        CLEAR      1  -2  85 CALM      30.39F
FORT WAYNE     CLOUDY     5   1  83 SE3       30.45S
6HR MIN TEMP:   4; 6HR MAX TEMP:   7;

HUNTINGTON*    CLOUDY     3  -3  76 CALM      30.44R
6HR MIN TEMP:   2; 6HR MAX TEMP:   4;

PERU/GRISSOM   CLOUDY    11   4  71 SE9       30.40F WCI  -1
6HR MIN TEMP:   8; 6HR MAX TEMP:  12;

MARION*        CLOUDY    10  -3  57 E7        30.43F WCI  -2
6HR MIN TEMP:  -1; 6HR MAX TEMP:  59;


$$
INZ028>050-141300-
CENTRAL INDIANA

CITY           SKY/WX    TMP DP  RH WIND       PRES   REMARKS
LAFAYETTE      CLOUDY    13   2  61 SE10      30.41F WCI   0
6HR MIN TEMP:  12; 6HR MAX TEMP:  13;

KOKOMO*        CLOUDY    10   1  67 SE10      30.41F WCI  -3
6HR MIN TEMP:   7; 6HR MAX TEMP:  12;

MUNCIE*        CLOUDY    11   2  67 SE8       30.42F WCI  -1
6HR MIN TEMP:   6; 6HR MAX TEMP:  11;

INDIANAPOLIS   FLURRIES  14   4  64 SE13      30.40F WCI   0
6HR MIN TEMP:  14; 6HR MAX TEMP:  15; 6HR PCP: TRACE;


$$
MIZ043>046-050>051-056>058-064>065-071>073-077>080-141300-
SOUTHWEST LOWER MICHIGAN

CITY           SKY/WX    TMP DP  RH WIND       PRES   REMARKS
BATTLE CREEK   CLOUDY    -2  -7  79 CALM      30.41S
6HR MIN TEMP:  -3; 6HR MAX TEMP:   9;

BENTON HARBOR  CLOUDY     9   3  77 SE7       30.43S WCI  -2
6HR MIN TEMP:   9; 6HR MAX TEMP:  14;

COLDWATER*     CLOUDY    -3  -7  82 CALM      30.41S
6HR MIN TEMP:  -3; 6HR MAX TEMP:  12;

HILLSDALE*     PTCLDY    -2  -6  82 CALM      30.38F
6HR MIN TEMP:  -2; 6HR MAX TEMP:   9;

HOLLAND        CLOUDY     8  -1  66 E5        30.42S WCI   0
6HR MIN TEMP:   8; 6HR MAX TEMP:  12;

GRAND RAPIDS   CLOUDY     2  -3  80 S5        30.42S WCI  -8
6HR MIN TEMP:   1; 6HR MAX TEMP:   7;

KALAMAZOO      CLOUDY     1  -5  75 CALM      30.42S
6HR MIN TEMP:  -1; 6HR MAX TEMP:  12;

STURGIS*       CLOUDY     5   0  79 SE5       30.40S WCI  -4
6HR MIN TEMP:   3; 6HR MAX TEMP:  10;

THREE RIVERS*  FAIR       5   0  81 SE3       30.42F
6HR MIN TEMP:   5; 6HR MAX TEMP:  14;


$$
OHZ001>008-015>018-024>025-141300-
NORTHWEST OHIO

CITY           SKY/WX    TMP DP  RH WIND       PRES   REMARKS
DEFIANCE       CLOUDY     7   0  73 CALM      30.45F
6HR MIN TEMP:   5; 6HR MAX TEMP:  14;

FINDLAY        CLOUDY     4   0  83 CALM      30.44S
6HR MIN TEMP:   3; 6HR MAX TEMP:   9;

TOLEDO EXPRESS CLOUDY     1  -3  83 CALM      30.45F
6HR MIN TEMP:   1; 6HR MAX TEMP:  12;

TOLEDO METCALF CLOUDY     5  -1  76 CALM      30.47F
6HR MIN TEMP:   3; 6HR MAX TEMP:  12;

LIMA           CLOUDY     2  -2  83 SE5       30.43R WCI  -8
6HR MIN TEMP:   2; 6HR MAX TEMP:   7;


$$
AND FOR LAKE MICHIGAN COASTAL AND OPEN LAKE BUOY OBSERVATIONS

STATION/POSITION TEMP    WIND        PRES    VSBY  WAVE
                 AIR SEA DIR/SP/G                  HT/PER
                 (F)     (DEG/KT/KT) (MB)    (MI)  (FT/S)
CALUMET HARBOR    13     150/  8/ 12 1029.0F
MICHIGAN CITY      9     140/  9/ 11   N/A
BURNS HARBOR      12     150/  7/ 16 1030.8S
SAINT JOSEPH       9      CALM  /  3 1030.5S

$$
&&




USA.gov is the U.S. government's official web portal to all federal, state and local government web resources and services.